Regional Weather Roundup
Issued by NWS Mobile, AL

Home | Current Version | Previous Version | Text Only | Print | Product List | Glossary On
Versions: 1 2 3 4 5 6 7 8 9 10 11 12 13 14 15 16 17 18 19 20 21 22 23 24 25 26 27 28 29 30 31 32 33 34 35 36 37 38 39 40 41 42 43 44 45 46 47 48 49 50
000
ASUS44 KMOB 210612
RWRMOB
REGIONAL WEATHER ROUNDUP
NATIONAL WEATHER SERVICE MOBILE AL
1200 AM CST TUE FEB 21 2017

NOTE: "FAIR" INDICATES FEW OR NO CLOUDS BELOW 12,000 FEET WITH NO
      SIGNIFICANT WEATHER AND/OR OBSTRUCTIONS TO VISIBILITY.

  * THESE STATIONS ARE PART OF THE UNIVERSITY OF SOUTH ALABAMA
    MESONET AND ARE NOT UNDER NWS OR FAA QUALITY CONTROL.

ALZ061>064-210700-
COASTAL ALABAMA

CITY           SKY/WX    TMP DP  RH WIND       PRES   REMARKS
MOBILE REG APT CLOUDY    67  64  90 SE16      30.00F
6HR MIN TEMP:  66; 6HR MAX TEMP:  69;

BROOKLEY FIELD CLOUDY    67  66  97 SE8       30.01F
6HR MIN TEMP:  67; 6HR MAX TEMP:  70;

USA CAMPUS*    NOT AVBL
DOG RIVER*     NOT AVBL


CITY           SKY/WX    TMP DP  RH WIND       PRES   REMARKS
GULF SHORES    CLOUDY    67  67 100 SE8       30.01F

$$

ALZ051>060-210700-
INTERIOR SOUTHWEST AND SOUTH CENTRAL ALABAMA

CITY           SKY/WX    TMP DP  RH WIND       PRES   REMARKS
GREENVILLE     PTCLDY    62  54  74 SE3       30.04F
6HR MIN TEMP:  61; 6HR MAX TEMP:  72;

EVERGREEN      PTCLDY    59  54  83 CALM      30.04S
6HR MIN TEMP:  56; 6HR MAX TEMP:  71;

ATMORE*        NOT AVBL
ANDALUSIA/OPP  CLOUDY    62  55  77 E3        30.04S
6HR MIN TEMP:  61; 6HR MAX TEMP:  73;

ANDALUSIA*     NOT AVBL
FLORALA APT    MOCLDY    61  55  81 SE5       30.05F
6HR MIN TEMP:  60; 6HR MAX TEMP:  68; 6HR PCP: TRACE;

FLORALA*       NOT AVBL

$$

FLZ001>006-210700-
WESTERN FLORIDA PANHANDLE

CITY           SKY/WX    TMP DP  RH WIND       PRES   REMARKS
PENSACOLA      CLOUDY    67  64  90 SE9       30.02S
6HR MIN TEMP:  66; 6HR MAX TEMP:  67;

NAS PENSACOLA  MOCLDY    67  65  93 SE8       30.01S
6HR MIN TEMP:  66; 6HR MAX TEMP:  68;

MILTON         LGT RAIN  61  60  97 SE5       30.02F
6HR MIN TEMP:  59; 6HR MAX TEMP:  66; 6HR PCP: TRACE;

WHTNG S FIELD  MOCLDY    65  63  93 SE6       30.03S
6HR MIN TEMP:  64; 6HR MAX TEMP:  71;



CITY           SKY/WX    TMP DP  RH WIND       PRES   REMARKS
JAY*           NOT AVBL
DUKE FIELD     PTCLDY    63  61  92 SE7       30.01F
CRESTVIEW      CLOUDY    55  54  96 CALM      30.04F
6HR MIN TEMP:  54; 6HR MAX TEMP:  63;

VALPARAISO     MOCLDY    65  63  94 E5        30.03F
6HR MIN TEMP:  63; 6HR MAX TEMP:  66;

DESTIN         CLOUDY    69  66  90 SE10      30.02F
6HR MIN TEMP:  69; 6HR MAX TEMP:  70;


$$

MSZ076-079-210700-
INTERIOR SOUTHEAST MISSISSIPPI

CITY           SKY/WX    TMP DP  RH WIND       PRES   REMARKS
LEAKESVILLE*   NOT AVBL
AGRICOLA*      NOT AVBL

$$

MARINE OBSERVATIONS

STATION/POSITION TIME  TEMP    WIND        PRES    WAVE
                       AIR SEA DIR/SP/G            HT/PER
                 (UTC) (F)     (DEG/KT/KT) (MB)    (FT/S)
PASCAGOULA       0548          140/ 13/ 18 1014.7F
PETIT BOIS ISLND 0548          140/ 13/ 18 1015.6F
GRAND BAY        0430   69     130/ 13     1016.0F
E DAUPHIN ISLAND 0500   69     130/ 15/ 17 1015.5F
MIDDLE BAY LIGHT 0500   67     130/ 14     1015.9
USCG MOBILE BAY  0542      66  150/  4/  6 1016.5F
STATE DOCKS      0542                      1015.8F
MEAHER PARK      0530   66     130/  7     1016.3F
WEEKS BAY        0445   66                   N/A
FORT MORGAN      0548          140/ 19/ 21   N/A
12 S ORANGE BCH  0450   69 68  140/ 14/ 16 1016.1F   3/ 5
PENSACOLA BAY    0542      67  130/  1/  5 1016.6F
67 S FORT MORGAN 0530   71     150/ 17     1015.9F

$$

SELECTED LOCATIONS ACROSS THE REGION

CITY           SKY/WX    TMP DP  RH WIND       PRES   REMARKS
NEW ORLEANS    HVY RAIN  61  60  97 NW14G25   30.01R FOG
GULFPORT       CLOUDY    69  67  93 SE14      29.95F
PASCAGOULA AP  LGT RAIN  68  65  90 SE9       29.98F FOG
PASCAGOULA*    NOT AVBL
HATTIESBURG    CLOUDY    66  64  93 SE12      29.95F
LAUREL         CLOUDY    66  59  77 SE14G20   29.95F
MERIDIAN       CLOUDY    68  55  63 S9        29.95F
JACKSON        LGT RAIN  64  61  90 SW12      29.94R FOG
MONTGOMERY     CLOUDY    62  53  72 SE6       30.05F
TROY           PTCLDY    57  54  89 CALM      30.06F
ASHFORD*       NOT AVBL
DOTHAN         CLOUDY    57  56  96 CALM      30.10S
PANAMA CITY    PTCLDY    58  56  93 CALM      30.04F

$$




USA.gov is the U.S. government's official web portal to all federal, state and local government web resources and services.